Tracking 29065 objects as of 22-Jul-2024
HD Live streaming from Space Station
objects crossing your sky now

COSMOS 1275 DEB

Track COSMOS 1275 DEB now!
10-day predictions


NORAD ID: 12674
Int'l Code: 1981-053AE
Perigee: 916.9 km
Apogee: 1,070.2 km
Inclination: 82.9 °
Period: 104.8 minutes
Semi major axis: 7364 km
RCS: 0.117 m2 (medium)
Launch date: June 4, 1981
Source: Commonwealth of Independent States (former USSR) (CIS)
Launch site: PLESETSK MISSILE AND SPACE COMPLEX (PKMTR)

Note: This is SATELLITE DEBRIS
Your satellite tracking list
Your tracking list is empty




NASA's NSSDC Master Catalog

Two Line Element Set (TLE):
1 12674U 81053AE  24204.37887887  .00001279  00000-0  13019-2 0  9990
2 12674  82.9376 161.2367 0104028 118.5429   8.0878 13.73673977144371
Source of the keplerian elements: AFSPC